Hourly Data Report for June 05, 2018

LONDON CS
ONTARIO
Current Station Operator: ECCC - MSC

43°02'00.000" N
81°09'00.000" W
278.00 m
6144478
71622
WSN

Download Data

Hourly Data (June 2018)
Hourly Data Report for June 5, 2018
TIME Temp Definition
°C
Dew Point Definition
°C
Rel Hum Definition
%
Wind Dir Definition
10's deg

Wind Spd Definition
km/h
Visibility Definition
km
Stn Press Definition
kPa
Hmdx Definition


Wind Chill Definition


Weather Definition


00:00 12.7 9.6 81 LegendMM LegendMM   97.37     LegendNANA
01:00 12.2 8.9 80 LegendMM LegendMM   97.43     LegendNANA
02:00 11.5 7.9 78 LegendMM LegendMM   97.42     LegendNANA
03:00 10.6 7.7 82 LegendMM LegendMM   97.37     LegendNANA
04:00 10.6 7.9 83 LegendMM LegendMM   97.37     LegendNANA
05:00 10.2 8.1 87 LegendMM LegendMM   97.43     LegendNANA
06:00 11.6 7.4 75 LegendMM LegendMM   97.46     LegendNANA
07:00 12.6 7.1 69 LegendMM LegendMM   97.52     LegendNANA
08:00 13.1 7.1 67 LegendMM LegendMM   97.54     LegendNANA
09:00 13.0 7.1 67 LegendMM LegendMM   97.57     LegendNANA
10:00 12.5 6.2 66 LegendMM LegendMM   97.59     LegendNANA
11:00 11.7 6.0 68 LegendMM LegendMM   97.61     LegendNANA
12:00 11.6 6.5 71 LegendMM LegendMM   97.58     LegendNANA
13:00 11.1 6.7 74 LegendMM LegendMM   97.61     LegendNANA
14:00 12.5 7.3 71 LegendMM LegendMM   97.62     LegendNANA
15:00 13.0 7.4 69 LegendMM LegendMM   97.63     LegendNANA
16:00 12.8 6.0 64 LegendMM LegendMM   97.68     LegendNANA
17:00 12.2 5.3 63 LegendMM LegendMM   97.71     LegendNANA
18:00 11.3 5.6 68 LegendMM LegendMM   97.79     LegendNANA
19:00 11.1 5.8 70 LegendMM LegendMM   97.81     LegendNANA
20:00 10.9 6.3 73 LegendMM LegendMM   97.82     LegendNANA
21:00 10.8 6.4 74 LegendMM LegendMM   97.86     LegendNANA
22:00 10.6 6.5 75 LegendMM LegendMM   97.90     LegendNANA
23:00 10.5 6.4 76 LegendMM LegendMM   97.94     LegendNANA

Notes on Data Quality.

Legend

  • E = Estimated
  • M = Missing
  • NA = Not Available*
  • [empty] = Indicates an unobserved value
Date modified: